Вернуться в каталог

COSMOS 2251 DEB

АктивенLEO
NORAD 36550·DEBRIS·🇷🇺 Russia

Запущен Jun 16, 1993 с Plesetsk Cosmodrome

Loading…

Ближайшие Пролёты (ближайшие 24 часа)

TLE

СвежийSource: Space-Track

Эпоха: Sep 14, 2026, 02:17 UTC

1 36550U 93036BDL 26257.09524980  .00000802  00000-0  32331-3 0  9994
2 36550  74.0437  54.2784 0077350  38.0839 322.5741 14.27952835885257

Отслеживайте COSMOS 2251 DEB в реальном времени с AllMySat

Download on the App Store